Location: Hobi?a Gr?di?te
(45.4833°N, 22.7833°E)
Time: 11:05:06
(UTC+00:00)

YAOGAN 1 - Pass Details

Date: 28 January 2023
Orbit: 616 x 618 km, 97.8° (Epoch: 01 April)

Event Time Altitude Azimuth Distance (km) Brightness Sun altitude
Rises 16:25:32 0° 138° (SE) 2,880 5.7 -10.1°
Reaches altitude 10° 16:27:54 10° 128° (SE) 1,980 4.8 -10.5°
Maximum altitude 16:31:39 30° 67° (ENE) 1,128 3.3 -11.1°
Drops below altitude 10° 16:35:24 10° 7° (N) 1,995 5.0 -11.7°
Sets 16:37:48 0° 357° (N) 2,906 5.9 -12.1°
